STARLINK-4604, 53618

Orbit data source: Space-Track

STARLINK-4604, 53618 is a payload satellite owned by SpaceX/Seattle (US) in LEO that was launched on Sun, 28 Aug 2022 UTC via an FALCON 9 launch vehicle from the Air Force Eastern Test Range (AFETR). Payloads include a variety of satellites, spacecraft, and rockets equipped with specific instruments for various scientific and technological missions. These include communications satellites like Starlink; space stations such as the ISS; scientific satellites like the Hubble; Earth observation satellites from companies like Planet Labs, Umbra, and HawkEye 360; GPS; miniature CubeSats for education and research; and military/defense satellites.

Loading next visibility...
STARLINK-4604 details
Identifier
53618, 2022-104AG
Orbit
LEO
Last TLE update6 hours ago
Origin
Flag of USSpaceX/Seattle (US)
ManufacturerSpaceX/Seattle
MissionOperational Commercial Communications
Bus & MotorSTARLINK, Unknown motor
Mass300 kg wet, ~290 kg dry
Launch date (UTC)
2022-08-28 (2 years ago)
Launch vehicle
FALCON 9
Launch site
Air Force Eastern Test Range (AFETR)
Object type
Payload
Rocket body
Debris
Shape & HBRBox + 1 Pan, 8.86 m
Radar Cross Section13.562 m², Large (>1 m²)

Expand to show TLE details & history

TLE from 6 hours ago
0 STARLINK-4604
1 53618U 22104AG  24361.49474541  .00000347  00000-0  39863-4 0  9993
2 53618  53.2186  41.1688 0001452  91.0257 269.0902 15.08839475128902
Epoch: 2024-12-26T11:52Z
Definitive object data (Epoch: 2024-12-26T11:52:26.003Z)
Latitude0.00002°
Longitude127.58714°
Altitude540.659 km
Speed7.593 km/s
True Right ascension02h 44m 40s
True Declination0° 00' 00"
Sunlit
Object was in full shadow at TLE epoch
Visualization TLE readout
Latitude-49.20759°
Longitude66.961°
Altitude557.651 km
Speed7.582 km/s
Apparent Right ascension02h 10m 06s
Apparent Declination-56° 32' 55"
Sunlit
Object is in daylight
Visualization observer readout
Local Sidereal Time17:17:40
Azimuth134.699° SE
Elevation-55.518°
Doppler factor1
Orbital elements
Apogee altitude540.994 km
Perigee altitude538.985 km
Semi-major axis6,918.127 km
Eccentricity0.0001452
Inclination53.2186°
RAAN41.1688°
Arg. of periapsis91.0257°
True anomaly269.07356°
Mean anomaly269.0902°
Eccentric anomaly269.08188°
Mean motion3.7719 °/min
BSTAR0.000039863
Orbital period95.44 mins
Loading maneuver chart data...
Loading historical data...
Loading historical data...
Loading historical data...
Loading historical data...
Loading historical data...
Loading historical data...
Loading historical data...

STARLINK-4604 Visibility forecast

Observer location: undefined°, undefined

Span
Click to sort rows by Start time (UTC) header in descending order
Start Az.
Max El. time (UTC)
Max El. Az.
Max El.
End time (UTC)
End Az.
7 mins2024-12-27 05:32:15.591Z224.364° SW2024-12-27 05:35:15.591Z189.157° SSW44.069°2024-12-27 05:39:15.591Z51.99° ENE
5 mins2024-12-27 07:13:15.591Z298.625° NW2024-12-27 07:15:15.591Z337.211° NNW20.43°2024-12-27 07:18:15.591Z27.292° NE
4 mins2024-12-27 10:35:15.591Z356.482° N2024-12-27 10:36:15.591Z15.305° NNE17.822°2024-12-27 10:39:15.591Z64.713° ENE
6 mins2024-12-27 12:14:15.591Z317.377° NNW2024-12-27 12:16:15.591Z17.716° NNE43.844°2024-12-27 12:20:15.591Z124.761° SE
|